Temp
95 96 95 94 94 95 95 96 98 95 93 95 95 95 92 88 83 82 84 85 89 94 98 95 89 96 95 95 100 98 98 92 91 99 97 97 95 81 77 75 76 76 76 76 76 77 78 78 78 79 79 79 79 79 78 79 79 78 78 77 78 78 77 77 75 75 75 74 73 73 74 74 75 76
93 94 95 95 95 95 96 97 98 95 93 94 95 95 94 91 85 84 81 83 90 92 97 99 87 86 94 99 98 101 99 85 93 98 97 98 97 76 76 77 75 75 74 75 75 76 77 77 77 77 77 77 77 77 77 77 77 78 77 77 76 75 75 75 74 75 75 74 73 73 73 74 75 75
93 91 92 92 93 93 94 94 97 96 95 94 95 94 94 92 89 86 84 81 88 94 91 96 100 97 95 100 100 102 101 94 94 97 97 97 86 76 83 76 75 75 73 73 74 74 75 75 74 75 76 76 76 77 76 76 76 76 76 76 74 73 73 73 73 74 75 74 73 73 73 74 75 75
94 91 90 90 91 93 93 93 95 95 94 94 95 94 93 91 91 88 85 82 82 91 94 95 97 100 97 96 96 97 101 96 84 97 97 95 85 91 93 76 78 75 74 73 73 72 73 73 73 74 75 75 75 76 75 74 74 74 74 73 72 71 71 71 74 74 74 74 73 73 73 74 74 75
92 90 89 90 90 91 91 92 94 96 95 94 94 93 93 92 91 89 85 84 84 89 95 94 96 99 98 97 96 96 97 99 99 93 98 97 98 99 100 96 76 75 73 74 72 72 72 71 72 73 74 75 74 74 73 71 70 71 71 70 69 69 70 72 73 73 74 73 73 74 74 74 74 75
92 90 88 89 91 92 91 93 94 96 97 96 95 95 94 92 92 91 88 85 84 83 90 92 96 96 97 93 97 94 94 96 95 97 97 100 100 99 99 98 94 72 77 75 72 73 71 70 71 72 73 73 73 72 71 69 68 69 69 68 67 68 69 69 72 73 72 73 73 74 74 74 74 74
91 90 89 91 92 96 93 93 94 95 95 96 94 94 94 92 93 92 90 86 85 85 87 91 91 92 94 93 93 95 97 94 96 93 97 99 102 102 100 99 102 73 78 73 74 72 71 71 70 71 70 72 71 70 68 67 66 66 66 65 66 67 67 66 68 71 72 72 73 73 73 73 74 74
91 91 90 91 93 93 90 90 92 93 94 94 92 93 92 91 91 91 91 88 86 87 85 87 89 92 91 93 95 98 96 96 95 95 96 98 98 99 100 100 102 83 75 74 74 74 73 71 71 69 69 69 68 67 66 66 65 64 65 65 65 65 65 64 65 67 68 69 70 72 72 73 73 73
90 90 91 92 92 91 90 91 92 93 92 93 93 92 92 91 92 92 91 89 89 86 85 87 89 91 92 93 93 95 93 94 94 94 92 95 96 94 98 102 102 80 71 75 74 74 75 73 70 69 69 69 68 68 67 66 65 64 63 63 63 65 64 64 64 64 65 66 66 68 70 71 72 71
92 91 91 91 92 91 91 91 92 91 91 92 92 91 91 92 91 89 89 88 87 87 86 86 88 89 90 90 91 93 92 92 92 92 93 94 93 92 94 97 100 103 102 100 93 76 74 70 69 71 70 68 68 67 67 67 66 64 63 61 63 64 63 62 62 62 62 63 64 65 67 69 69 70
94 94 94 92 92 91 92 92 92 92 92 92 91 90 89 90 90 90 89 88 87 88 87 88 89 89 92 91 89 92 92 91 91 89 89 88 92 92 91 90 96 99 98 90 78 84 81 77 81 69 70 69 68 67 67 68 66 66 63 62 63 63 62 63 62 61 61 62 62 63 63 64 67 69
95 94 95 96 95 95 93 92 92 92 91 91 90 90 90 90 88 89 90 88 85 85 89 89 88 87 89 89 91 94 91 89 88 91 89 87 88 89 89 91 91 92 92 93 98 83 79 78 72 68 70 70 70 70 71 68 69 66 64 63 65 64 62 62 62 61 61 61 61 61 62 62 63 66
94 94 96 97 97 94 91 90 89 89 88 88 84 83 83 85 86 85 82 86 85 83 81 79 81 81 79 83 86 89 89 87 87 90 91 88 89 90 89 91 93 92 91 94 95 95 95 92 84 82 85 86 80 77 74 74 71 66 64 63 64 64 63 62 61 61 61 60 61 60 61 61 60 62
94 95 96 97 92 90 90 89 86 83 82 82 88 89 85 77 78 77 79 82 80 77 77 81 83 79 77 75 77 81 91 92 90 89 88 86 89 88 88 88 90 91 92 91 87 91 95 93 90 89 88 90 86 84 81 75 72 66 64 64 64 63 63 62 62 61 60 60 60 59 59 59 60 60
92 94 95 96 94 90 88 88 84 83 82 82 80 79 81 83 83 81 78 79 79 81 80 80 82 81 79 78 78 89 93 94 92 90 88 88 86 84 82 81 85 89 88 85 85 87 91 90 88 87 88 87 86 84 76 66 65 64 64 64 64 63 63 63 63 62 60 60 60 60 59 59 59 59
92 93 94 96 98 97 95 95 90 85 83 82 81 80 79 79 80 80 81 82 81 80 81 81 83 82 80 77 76 87 93 90 89 88 87 85 84 82 82 82 81 85 87 85 84 82 85 90 89 79 84 84 83 77 68 65 64 64 63 63 63 63 63 63 63 62 62 61 61 61 61 61 60 59
89 90 92 93 96 98 93 92 91 86 86 81 79 80 79 79 79 74 74 78 84 85 81 81 83 84 80 77 79 89 89 89 85 86 86 86 86 85 83 82 83 84 86 86 84 82 85 90 86 77 82 86 85 81 69 64 65 63 64 63 63 63 63 63 62 62 62 61 60 59 59 61 61 59
87 85 86 89 90 92 92 91 90 89 88 88 86 85 86 88 88 84 77 75 77 81 84 82 79 81 80 77 80 89 88 86 85 85 85 86 85 84 82 82 83 84 89 84 83 81 84 90 89 83 82 83 81 79 68 64 64 64 62 63 62 62 63 63 62 62 61 61 60 59 58 59 59 59
89 88 87 84 82 84 88 89 88 88 88 87 88 88 89 89 89 88 89 88 86 83 86 86 85 85 82 81 88 89 88 88 87 86 85 85 85 85 86 83 81 85 86 86 84 79 84 88 87 86 85 86 81 80 68 64 65 63 63 63 63 62 62 63 62 62 61 61 60 59 58 58 59 59
87 87 84 81 81 80 84 84 78 83 87 88 87 86 88 88 90 91 88 75 78 85 88 88 89 89 82 76 82 80 87 89 87 87 87 86 84 83 82 82 81 82 85 86 83 82 83 88 87 87 88 89 85 85 81 66 67 65 63 63 63 62 62 62 62 62 62 61 60 60 59 56 56 58
86 84 81 79 80 82 87 81 71 71 81 84 86 86 87 88 89 89 90 71 67 66 64 63 64 65 66 67 66 66 65 75 81 86 84 82 84 81 79 82 81 79 84 85 85 83 83 86 85 86 88 87 86 86 85 80 67 66 65 63 61 61 61 61 62 62 62 61 61 60 59 57 58 59
81 83 82 80 79 86 87 76 69 67 78 83 84 85 85 85 85 86 90 88 79 66 66 66 66 66 66 67 67 68 68 69 77 83 81 84 84 82 81 80 84 83 81 80 81 80 84 85 85 83 86 85 86 88 85 84 75 64 65 62 62 62 62 61 61 62 62 61 61 61 59 58 61 74
80 85 83 79 82 84 83 70 66 65 78 83 84 84 83 82 83 85 88 84 82 81 81 81 80 77 75 79 80 78 75 79 83 84 83 86 84 81 81 80 80 81 78 77 78 78 82 82 85 82 81 80 87 86 84 84 84 85 85 81 78 62 64 62 62 61 60 61 60 61 59 58 63 83
78 78 82 83 73 69 68 65 63 62 64 80 82 83 82 83 82 86 83 76 77 79 83 85 84 82 80 81 82 82 83 84 82 84 86 86 85 81 81 82 81 77 74 77 77 76 83 83 80 83 81 77 77 85 87 87 85 84 84 82 85 69 65 62 63 58 62 62 59 59 59 58 61 79
78 79 77 80 73 63 62 60 59 59 59 67 79 81 78 80 78 78 81 76 77 78 81 81 80 80 79 79 79 80 83 85 84 82 82 85 84 83 82 83 79 75 74 74 72 78 77 80 78 80 80 79 82 81 83 83 84 83 82 82 81 81 82 83 80 82 61 58 58 58 57 58 59 67
79 78 79 83 70 57 58 56 55 55 57 60 71 77 67 66 64 77 77 78 76 76 75 74 74 73 72 73 75 78 82 84 82 81 80 81 82 83 81 78 77 74 71 74 69 77 76 76 76 76 77 76 78 79 78 81 85 82 82 82 81 81 81 82 82 81 81 82 81 73 70 60 60 59
77 79 79 80 67 57 54 54 54 55 56 62 67 61 60 62 64 74 78 76 75 73 72 71 70 70 70 71 70 72 75 79 79 82 81 81 80 78 79 79 77 75 75 76 77 76 75 74 76 73 72 74 72 75 77 78 81 83 82 83 83 84 82 82 80 80 81 80 81 67 60 56 57 58
76 77 76 71 55 52 49 50 53 55 58 65 59 57 59 61 66 75 75 72 71 70 70 70 69 69 70 70 69 69 73 74 75 78 79 78 79 77 77 76 76 77 77 78 77 76 75 74 75 74 72 72 71 72 72 79 80 81 78 81 82 84 82 80 80 79 78 79 79 79 80 80 79 74
72 64 54 52 52 53 53 53 55 59 60 56 55 55 58 65 70 71 72 71 70 68 68 68 68 68 68 68 68 70 71 72 75 75 77 78 78 78 76 76 76 76 80 80 77 76 75 74 73 73 72 73 72 74 74 74 76 77 78 75 77 81 80 80 80 78 76 77 78 78 78 78 77 77
61 58 56 55 56 60 63 69 71 70 70 63 61 61 63 67 69 71 71 70 68 69 69 68 67 66 66 66 67 70 72 72 73 74 74 75 76 76 75 75 75 77 79 79 79 77 75 74 73 71 71 72 73 73 73 74 73 77 77 76 76 78 79 78 78 78 75 74 75 76 78 78 77 76
69 69 70 71 63 62 63 63 65 68 67 67 68 68 68 69 70 70 71 70 70 68 67 65 64 64 64 65 66 66 67 68 71 74 74 77 76 76 75 74 75 76 77 79 79 76 75 74 72 71 68 69 72 72 73 73 72 74 76 77 75 71 76 77 77 77 75 74 74 77 77 77 78 78
66 69 70 67 73 74 72 70 71 71 71 70 68 69 70 71 72 71 70 69 67 67 68 66 64 64 66 67 69 71 72 73 74 75 74 73 72 74 74 73 72 74 75 76 78 76 74 74 72 71 70 69 67 69 71 72 73 75 74 75 74 76 77 76 76 76 74 72 73 74 74 76 77 78
64 69 74 78 79 76 72 70 70 71 70 69 69 69 69 68 68 67 66 65 65 65 64 64 65 66 69 70 71 71 71 71 72 71 70 71 71 72 73 72 71 71 70 72 73 75 74 73 73 71 70 71 70 69 69 70 74 75 73 73 73 73 76 76 75 73 72 71 71 73 73 75 77 76
62 71 75 76 77 76 76 73 70 69 70 70 68 67 66 67 66 65 64 64 64 65 65 66 67 67 68 68 69 70 69 69 70 70 69 71 72 71 71 71 71 71 70 70 71 72 72 71 71 72 72 72 73 71 70 70 70 72 73 73 73 72 74 74 74 72 72 71 70 70 71 74 76 77
72 76 76 76 77 76 75 73 71 70 69 69 69 68 67 66 65 64 63 63 64 65 65 66 68 68 68 67 68 68 68 69 71 72 73 74 74 72 71 71 70 69 69 69 70 71 70 70 70 70 71 71 70 69 67 69 70 70 71 72 73 71 71 73 72 71 71 71 72 68 70 73 74 76
76 78 77 75 75 76 74 73 71 70 69 69 70 68 66 65 65 65 64 64 65 65 64 65 66 67 67 68 68 69 69 70 73 73 73 73 72 71 72 71 69 69 70 69 69 70 70 69 69 67 67 69 70 69 64 64 66 70 68 69 70 70 70 70 70 71 71 71 70 69 68 68 70 73
74 75 74 73 72 73 72 73 72 71 70 70 70 70 69 66 65 65 65 65 67 66 66 67 67 69 69 69 69 69 70 73 73 73 72 73 72 71 71 70 69 69 69 69 70 70 69 68 68 67 66 67 68 69 68 65 60 61 70 67 67 69 68 68 68 68 71 70 69 70 70 68 68 71
68 70 70 69 69 69 70 70 70 69 69 69 69 69 69 68 67 66 67 65 63 64 64 65 67 69 71 71 71 71 72 72 73 74 72 72 71 70 69 68 68 68 68 69 69 69 69 68 67 67 66 64 65 66 67 70 69 65 61 68 66 67 68 67 67 67 67 70 70 71 70 68 70 72
67 67 66 66 65 66 66 66 67 66 66 65 66 65 64 64 64 65 67 67 67 66 65 65 64 65 67 68 69 69 68 69 69 69 70 70 68 67 67 67 66 67 67 67 69 69 69 68 66 65 64 63 62 63 63 63 64 69 64 57 67 67 69 67 65 66 67 67 69 69 70 72 72 64
68 68 68 67 65 65 63 63 61 60 63 64 63 62 61 62 63 64 64 63 63 63 63 62 62 62 64 66 67 68 67 66 66 67 68 68 67 66 67 65 65 66 66 66 66 68 67 67 65 63 62 62 64 65 67 66 68 70 70 63 58 63 68 68 65 64 64 67 67 66 67 69 68 71
69 68 68 68 67 64 63 63 62 59 57 57 58 58 58 58 58 58 58 59 60 60 60 60 60 61 61 61 62 63 63 64 64 65 65 66 65 64 62 61 64 66 65 64 65 65 65 65 64 61 62 64 66 69 67 66 66 70 71 66 56 56 59 62 67 65 64 65 65 65 65 65 65 66
70 68 68 68 66 65 65 64 64 63 62 60 59 58 57 57 57 58 58 58 58 58 58 59 59 60 61 62 62 61 61 60 60 61 62 62 63 63 63 64 64 65 63 63 63 64 66 67 67 67 67 67 66 64 62 63 63 66 66 69 69 58 55 57 59 60 67 66 65 63 63 64 65 63
69 69 68 67 67 66 65 64 64 63 62 62 60 60 60 59 59 59 59 58 58 58 58 59 60 60 60 61 60 59 59 58 58 58 59 60 60 60 60 62 63 64 64 64 65 65 66 66 66 66 66 65 65 63 61 62 63 63 64 67 68 69 68 58 56 56 57 56 55 60 64 63 60 57
69 69 68 67 67 66 65 64 63 62 62 62 61 61 61 60 58 57 57 57 57 56 56 55 55 55 57 58 59 58 58 58 58 58 58 58 58 59 59 60 61 61 62 63 63 64 65 65 66 66 64 63 64 63 62 61 61 62 64 65 65 65 66 69 68 57 56 56 54 54 53 55 58 57
68 68 67 67 66 65 65 64 63 62 62 62 62 61 60 60 59 58 57 56 56 55 55 55 54 54 54 55 55 55 55 55 56 57 57 57 58 59 59 59 59 60 60 61 60 60 62 61 62 64 63 64 64 63 62 61 60 61 61 62 62 63 64 64 64 65 64 63 57 55 56 55 55 55
MSLP
1019.00 1018.84 1018.88 1019.08 1018.92 1018.76 1018.48 1018.44 1018.24 1018.28 1018.56 1018.52 1018.48 1018.60 1019.36 1019.96 1021.24 1021.64 1021.16 1020.40 1019.76 1018.28 1017.40 1018.24 1018.12 1016.92 1016.96 1016.84 1016.20 1016.20 1016.04 1016.16 1016.20 1015.80 1015.80 1015.92 1016.04 1016.48 1016.56 1016.56 1016.52 1016.52 1016.40 1016.28 1016.08 1015.92 1015.76 1015.60 1015.40 1015.24 1015.08 1014.92 1014.76 1014.60 1014.48 1014.32 1014.12 1013.96 1013.80 1013.68 1013.60 1013.48 1013.36 1013.32 1013.44 1013.52 1013.68 1013.84 1014.00 1014.20 1014.32 1014.44 1014.52 1014.60
1018.96 1018.92 1018.88 1018.84 1018.96 1018.64 1018.48 1018.36 1018.12 1018.20 1018.48 1018.56 1018.40 1018.44 1018.48 1018.96 1020.44 1020.68 1021.48 1020.84 1019.16 1018.80 1017.44 1017.08 1018.44 1017.92 1017.04 1016.36 1016.24 1015.84 1016.00 1016.28 1016.20 1015.80 1015.88 1015.72 1015.92 1016.40 1016.44 1016.36 1016.40 1016.44 1016.40 1016.28 1016.12 1015.96 1015.84 1015.68 1015.52 1015.36 1015.16 1015.00 1014.84 1014.68 1014.56 1014.40 1014.20 1014.04 1013.88 1013.72 1013.60 1013.52 1013.40 1013.32 1013.40 1013.56 1013.68 1013.80 1013.96 1014.12 1014.24 1014.40 1014.48 1014.52
1018.96 1019.12 1019.24 1019.00 1019.04 1018.72 1018.68 1018.48 1018.16 1018.00 1018.20 1018.40 1018.28 1018.32 1018.32 1018.72 1019.16 1019.92 1020.40 1021.32 1019.24 1018.08 1018.76 1017.52 1016.56 1016.88 1016.72 1016.36 1016.20 1015.88 1015.68 1016.04 1016.16 1015.96 1015.84 1015.80 1016.04 1016.16 1016.16 1016.16 1016.12 1016.28 1016.32 1016.24 1016.12 1016.00 1015.88 1015.76 1015.60 1015.44 1015.28 1015.08 1014.92 1014.76 1014.64 1014.48 1014.32 1014.12 1013.96 1013.84 1013.68 1013.52 1013.40 1013.28 1013.36 1013.48 1013.64 1013.84 1014.00 1014.08 1014.20 1014.32 1014.40 1014.48
1018.80 1019.04 1019.28 1019.16 1019.08 1018.76 1018.60 1018.56 1018.32 1018.24 1018.16 1018.16 1018.20 1018.24 1018.44 1018.60 1018.72 1019.12 1019.88 1020.56 1020.52 1018.36 1018.08 1017.48 1016.88 1016.24 1016.48 1016.44 1016.72 1016.48 1015.92 1015.80 1016.12 1016.08 1015.92 1015.76 1016.00 1015.60 1015.68 1016.04 1015.72 1016.00 1016.12 1016.16 1016.12 1016.04 1015.92 1015.80 1015.68 1015.52 1015.40 1015.24 1015.08 1014.92 1014.76 1014.64 1014.48 1014.28 1014.08 1013.96 1013.80 1013.56 1013.36 1013.20 1013.24 1013.44 1013.56 1013.72 1013.84 1013.96 1014.04 1014.16 1014.28 1014.40
1018.84 1019.04 1019.24 1019.12 1018.92 1018.64 1018.88 1018.64 1018.36 1018.08 1018.04 1018.00 1018.12 1018.16 1018.32 1018.60 1018.44 1018.80 1019.52 1020.16 1019.96 1018.72 1017.32 1017.52 1017.32 1016.40 1016.52 1016.64 1016.48 1016.72 1016.44 1016.00 1015.76 1015.84 1015.52 1015.60 1015.52 1015.20 1014.96 1015.20 1015.68 1015.76 1015.88 1016.04 1016.12 1016.04 1015.96 1015.84 1015.76 1015.64 1015.56 1015.44 1015.32 1015.12 1014.96 1014.80 1014.64 1014.48 1014.32 1014.12 1013.96 1013.68 1013.40 1013.32 1013.28 1013.24 1013.28 1013.40 1013.64 1013.88 1014.04 1014.12 1014.20 1014.32
1018.88 1018.84 1019.16 1019.12 1018.84 1018.52 1018.68 1018.52 1018.32 1018.04 1017.88 1017.80 1017.92 1017.88 1018.04 1018.28 1018.36 1018.04 1018.96 1019.44 1019.68 1019.80 1018.16 1017.84 1016.72 1016.80 1016.44 1017.32 1016.20 1016.80 1016.92 1016.48 1016.20 1016.08 1015.76 1015.32 1015.04 1015.00 1015.04 1014.84 1015.32 1015.68 1015.68 1015.92 1016.04 1016.00 1015.92 1015.88 1015.84 1015.76 1015.72 1015.64 1015.48 1015.36 1015.20 1015.04 1014.88 1014.68 1014.52 1014.36 1014.16 1013.84 1013.60 1013.52 1013.36 1013.24 1013.24 1013.28 1013.44 1013.76 1013.96 1014.08 1014.16 1014.28
1018.60 1018.76 1018.88 1018.80 1018.48 1018.12 1018.28 1018.24 1018.12 1017.84 1017.84 1017.68 1017.88 1017.88 1017.68 1018.04 1018.04 1017.92 1018.12 1018.96 1019.48 1019.40 1018.88 1017.72 1017.80 1017.20 1016.92 1017.32 1017.04 1016.48 1016.28 1016.32 1016.16 1016.44 1015.96 1015.56 1015.04 1014.84 1014.84 1014.88 1014.76 1015.48 1015.52 1015.80 1015.92 1015.92 1015.92 1015.96 1015.92 1015.88 1015.88 1015.76 1015.64 1015.56 1015.44 1015.32 1015.12 1014.92 1014.72 1014.56 1014.40 1014.12 1013.88 1013.68 1013.44 1013.32 1013.20 1013.28 1013.44 1013.68 1013.88 1014.00 1014.04 1014.20
1018.40 1018.52 1018.64 1018.44 1018.16 1018.04 1018.32 1018.36 1018.20 1017.88 1017.72 1017.72 1017.80 1017.96 1017.88 1017.96 1018.08 1017.96 1017.92 1018.20 1018.76 1018.80 1019.20 1018.20 1018.00 1017.32 1017.40 1017.04 1016.48 1016.16 1016.08 1016.20 1016.16 1016.12 1015.84 1015.44 1015.40 1015.28 1014.88 1014.60 1014.40 1015.00 1015.28 1015.52 1015.68 1015.72 1015.80 1015.92 1015.96 1015.96 1015.96 1015.88 1015.80 1015.76 1015.64 1015.52 1015.36 1015.16 1014.92 1014.72 1014.56 1014.36 1014.12 1013.92 1013.64 1013.44 1013.28 1013.36 1013.56 1013.60 1013.68 1013.80 1013.88 1014.00
1018.16 1018.24 1018.24 1018.04 1018.00 1018.08 1018.36 1018.24 1018.12 1017.80 1017.88 1017.72 1017.68 1017.84 1017.68 1017.84 1017.72 1017.64 1017.68 1017.84 1018.00 1018.56 1018.88 1018.40 1017.52 1017.12 1017.08 1016.72 1016.52 1016.24 1016.72 1016.36 1016.04 1015.92 1016.12 1015.88 1015.64 1015.52 1015.08 1014.48 1014.16 1014.60 1014.96 1015.24 1015.48 1015.56 1015.64 1015.80 1015.92 1016.00 1016.00 1016.00 1015.92 1015.84 1015.80 1015.72 1015.56 1015.40 1015.20 1014.92 1014.68 1014.48 1014.32 1014.08 1013.88 1013.64 1013.36 1013.40 1013.60 1013.56 1013.60 1013.68 1013.76 1013.88
1017.68 1017.76 1017.84 1017.72 1017.68 1017.84 1018.08 1018.00 1017.76 1017.68 1017.84 1017.72 1017.76 1017.80 1017.76 1017.52 1017.48 1017.80 1017.84 1017.80 1017.96 1018.16 1018.24 1018.16 1018.00 1017.24 1017.32 1017.04 1016.76 1016.36 1016.44 1016.68 1016.68 1016.44 1016.00 1015.68 1015.64 1015.88 1015.68 1015.16 1014.60 1014.16 1014.36 1014.68 1015.00 1015.52 1015.64 1015.72 1015.80 1015.96 1016.00 1016.08 1016.04 1015.92 1015.88 1015.88 1015.80 1015.64 1015.48 1015.24 1014.92 1014.64 1014.40 1014.24 1014.04 1013.80 1013.56 1013.44 1013.56 1013.52 1013.48 1013.56 1013.68 1013.84
1017.08 1017.12 1017.16 1017.28 1017.28 1017.48 1017.52 1017.60 1017.56 1017.52 1017.56 1017.56 1017.64 1017.60 1017.68 1017.56 1017.64 1017.68 1017.64 1017.64 1017.84 1017.88 1017.92 1017.68 1017.40 1017.36 1016.72 1016.64 1017.24 1016.28 1016.04 1016.36 1016.60 1017.00 1016.92 1017.00 1015.96 1015.76 1015.92 1016.08 1015.04 1014.48 1014.72 1014.52 1014.72 1014.84 1014.96 1015.24 1015.52 1015.92 1016.00 1016.04 1016.04 1015.96 1015.88 1016.00 1015.96 1015.88 1015.72 1015.52 1015.24 1014.92 1014.60 1014.32 1014.12 1013.96 1013.76 1013.56 1013.52 1013.52 1013.44 1013.48 1013.64 1013.76
1016.68 1016.64 1016.60 1016.56 1016.56 1016.68 1016.84 1017.04 1017.12 1017.16 1017.36 1017.20 1017.52 1017.36 1017.28 1017.36 1017.68 1017.68 1017.32 1017.60 1017.88 1017.88 1017.64 1017.68 1017.76 1017.64 1017.12 1016.76 1016.32 1015.88 1016.16 1016.80 1016.68 1016.36 1016.72 1017.28 1016.92 1016.44 1015.92 1015.64 1015.80 1015.44 1015.32 1015.04 1014.60 1014.68 1015.04 1015.32 1015.84 1016.00 1015.92 1015.88 1015.88 1015.88 1015.72 1016.00 1016.08 1016.08 1015.96 1015.76 1015.52 1015.24 1014.92 1014.56 1014.28 1014.08 1013.92 1013.76 1013.60 1013.48 1013.44 1013.44 1013.52 1013.68
1016.44 1016.40 1016.24 1016.12 1016.00 1016.04 1016.36 1016.52 1016.76 1016.80 1016.96 1017.48 1017.88 1017.92 1017.96 1017.92 1017.84 1018.04 1018.28 1017.64 1017.76 1018.20 1018.68 1019.04 1018.52 1018.60 1018.64 1017.96 1017.20 1016.80 1016.84 1017.08 1017.12 1016.32 1016.24 1016.80 1016.40 1016.12 1016.12 1015.64 1015.16 1015.32 1015.52 1015.08 1014.92 1014.96 1014.76 1015.00 1015.60 1015.76 1015.72 1015.56 1015.56 1015.88 1015.88 1015.84 1016.04 1016.24 1016.12 1015.96 1015.72 1015.48 1015.16 1014.84 1014.56 1014.36 1014.20 1014.08 1013.96 1013.84 1013.76 1013.76 1013.84 1013.88
1016.32 1016.12 1015.96 1015.76 1015.88 1016.08 1016.24 1016.52 1016.72 1016.80 1016.92 1017.04 1017.08 1017.24 1017.76 1018.76 1018.76 1019.12 1019.04 1018.28 1018.40 1018.68 1019.00 1018.68 1018.48 1018.92 1018.88 1018.88 1018.68 1017.64 1016.04 1015.76 1015.92 1016.32 1016.44 1017.00 1016.48 1016.36 1016.40 1016.00 1015.52 1015.32 1015.40 1015.60 1015.96 1015.40 1014.68 1014.96 1015.24 1015.24 1015.60 1015.56 1015.72 1015.96 1016.12 1016.44 1016.40 1016.40 1016.24 1016.12 1015.92 1015.68 1015.40 1015.16 1014.88 1014.68 1014.56 1014.40 1014.28 1014.12 1013.96 1013.96 1014.00 1013.96
1016.52 1016.04 1015.72 1015.56 1015.56 1015.88 1016.12 1016.24 1016.36 1016.52 1016.68 1016.84 1017.04 1017.12 1017.20 1017.28 1017.80 1018.32 1018.80 1018.80 1018.60 1018.24 1018.44 1018.36 1018.40 1018.48 1018.68 1018.48 1018.36 1016.32 1015.48 1015.28 1015.68 1016.16 1016.36 1016.64 1016.76 1017.16 1017.56 1017.84 1016.52 1015.44 1015.68 1016.04 1016.24 1015.84 1014.96 1015.08 1015.64 1015.64 1015.84 1016.08 1016.20 1016.32 1016.88 1016.92 1016.64 1016.48 1016.36 1016.24 1016.08 1015.88 1015.64 1015.40 1015.20 1015.00 1014.84 1014.68 1014.56 1014.40 1014.24 1014.16 1014.12 1014.12
1016.08 1016.00 1015.84 1015.52 1015.16 1015.12 1015.20 1015.28 1015.68 1016.08 1016.32 1016.56 1016.72 1016.84 1016.96 1017.12 1017.16 1017.24 1017.72 1017.76 1017.88 1017.96 1018.20 1018.24 1017.88 1017.92 1018.24 1018.60 1019.04 1016.84 1015.48 1015.72 1015.96 1016.12 1016.28 1016.64 1017.00 1017.28 1017.40 1017.24 1017.44 1016.24 1015.60 1016.16 1016.36 1016.68 1015.72 1014.96 1015.36 1016.56 1016.28 1016.36 1016.68 1017.20 1017.28 1017.12 1016.92 1016.72 1016.56 1016.40 1016.24 1016.04 1015.88 1015.68 1015.48 1015.32 1015.16 1015.00 1014.84 1014.68 1014.52 1014.36 1014.32 1014.36
1015.96 1015.88 1015.84 1015.64 1015.20 1014.80 1014.88 1015.16 1015.44 1015.92 1016.12 1016.32 1016.44 1016.44 1016.52 1016.52 1016.52 1016.76 1016.80 1016.60 1016.72 1016.88 1017.72 1017.96 1017.64 1017.44 1017.72 1018.28 1018.20 1016.28 1015.88 1015.68 1016.52 1016.40 1016.52 1016.40 1016.48 1016.60 1017.00 1017.04 1016.80 1016.40 1015.68 1016.00 1016.40 1016.64 1015.84 1015.04 1015.64 1017.00 1016.36 1016.16 1016.48 1017.04 1017.32 1017.28 1017.12 1016.92 1016.76 1016.60 1016.40 1016.24 1016.04 1015.88 1015.76 1015.60 1015.44 1015.32 1015.20 1015.08 1014.92 1014.68 1014.56 1014.52
1016.16 1016.16 1016.16 1015.92 1015.84 1015.36 1015.16 1015.12 1015.36 1015.64 1015.80 1015.92 1016.08 1016.20 1016.08 1015.96 1015.84 1015.92 1016.08 1016.24 1016.32 1016.68 1017.04 1017.36 1017.80 1017.16 1017.28 1017.96 1017.44 1015.68 1015.52 1016.16 1016.56 1016.64 1016.68 1016.36 1016.44 1016.56 1016.84 1016.60 1016.44 1016.20 1015.56 1016.40 1016.56 1016.84 1016.20 1015.00 1015.40 1016.32 1016.32 1016.28 1016.72 1017.16 1017.48 1017.32 1017.16 1017.04 1016.92 1016.80 1016.64 1016.44 1016.28 1016.08 1015.96 1015.84 1015.68 1015.56 1015.48 1015.40 1015.32 1015.16 1014.96 1014.80
1015.60 1015.64 1015.92 1016.28 1016.56 1016.28 1015.44 1015.20 1015.40 1015.52 1015.64 1015.76 1015.84 1015.80 1015.72 1015.56 1015.48 1015.44 1015.48 1015.60 1015.80 1016.08 1016.12 1016.32 1016.56 1016.36 1016.40 1016.64 1015.60 1015.20 1015.28 1015.56 1015.72 1015.88 1016.24 1016.20 1016.24 1016.08 1015.64 1015.92 1016.40 1016.12 1015.84 1015.96 1016.36 1017.44 1016.08 1015.28 1015.60 1015.80 1015.84 1015.88 1016.36 1016.76 1017.28 1017.24 1017.12 1017.04 1016.96 1016.88 1016.76 1016.60 1016.44 1016.28 1016.16 1016.04 1015.92 1015.80 1015.72 1015.64 1015.60 1015.56 1015.40 1015.12
1015.48 1015.48 1015.76 1016.08 1016.28 1016.68 1015.76 1015.36 1015.44 1015.36 1015.36 1015.56 1015.76 1015.80 1015.56 1015.44 1015.20 1015.04 1014.88 1015.20 1015.36 1015.28 1015.32 1015.48 1015.52 1015.64 1015.76 1015.32 1015.28 1015.36 1015.20 1015.24 1015.36 1015.52 1015.56 1015.68 1016.04 1016.32 1016.60 1016.60 1016.64 1016.76 1016.16 1015.96 1016.52 1016.96 1016.44 1015.36 1016.04 1015.72 1015.40 1015.16 1015.76 1015.92 1016.64 1017.04 1016.96 1016.96 1016.92 1016.88 1016.80 1016.68 1016.56 1016.44 1016.32 1016.20 1016.12 1016.00 1015.88 1015.76 1015.76 1015.72 1015.64 1015.48
1015.52 1015.56 1015.68 1015.88 1016.08 1015.96 1015.04 1015.08 1015.20 1015.28 1015.48 1015.76 1015.76 1015.76 1015.68 1015.44 1015.28 1015.12 1014.84 1015.28 1015.60 1015.76 1015.56 1015.44 1015.40 1015.40 1015.40 1015.48 1015.52 1015.52 1015.64 1015.72 1015.60 1015.72 1016.28 1016.68 1016.12 1016.80 1017.28 1016.80 1016.68 1017.12 1016.48 1016.40 1016.32 1016.68 1016.60 1015.92 1016.12 1015.96 1015.40 1015.44 1015.48 1015.72 1015.92 1016.32 1016.68 1016.68 1016.68 1016.72 1016.76 1016.68 1016.60 1016.52 1016.40 1016.28 1016.16 1016.04 1015.96 1015.84 1015.64 1015.56 1015.56 1015.56
1015.80 1015.32 1015.28 1015.68 1016.08 1015.16 1014.68 1014.88 1014.96 1015.16 1015.40 1015.64 1015.60 1015.68 1015.80 1015.76 1015.64 1015.36 1014.84 1014.96 1015.40 1015.68 1015.76 1015.72 1015.72 1015.72 1015.68 1015.68 1015.72 1015.72 1015.76 1015.76 1015.72 1016.08 1016.88 1016.16 1016.24 1016.84 1016.88 1017.24 1016.48 1016.60 1016.96 1017.20 1016.72 1016.92 1016.52 1016.20 1016.04 1016.56 1015.60 1015.56 1015.56 1015.40 1015.92 1015.92 1016.28 1016.60 1016.52 1016.48 1016.52 1016.60 1016.56 1016.48 1016.36 1016.36 1016.24 1016.12 1016.00 1015.84 1015.64 1015.40 1014.96 1014.48
1015.44 1014.80 1014.84 1015.28 1014.96 1014.72 1014.60 1014.88 1015.08 1015.20 1015.20 1015.32 1015.36 1015.32 1015.60 1015.72 1015.64 1015.20 1014.88 1015.16 1015.44 1015.60 1015.76 1015.88 1015.84 1016.04 1015.92 1015.68 1015.56 1015.72 1015.68 1015.68 1015.60 1015.68 1016.00 1015.80 1016.20 1016.84 1016.80 1016.80 1016.96 1016.92 1017.56 1017.56 1017.08 1017.36 1016.76 1016.76 1016.36 1016.68 1016.88 1016.80 1015.40 1015.48 1015.80 1016.00 1016.04 1015.88 1015.76 1015.96 1016.12 1016.36 1016.44 1016.40 1016.28 1016.20 1016.28 1016.20 1016.16 1016.00 1015.76 1015.52 1015.00 1014.24
1015.60 1015.52 1015.00 1014.60 1014.92 1014.76 1014.84 1014.96 1015.16 1015.36 1015.36 1015.20 1015.12 1015.12 1015.40 1015.44 1015.48 1014.68 1015.00 1015.88 1016.16 1015.92 1015.48 1015.36 1015.52 1015.72 1015.80 1015.72 1015.64 1015.64 1015.64 1015.64 1015.68 1015.72 1015.64 1015.68 1015.96 1016.64 1016.92 1016.84 1016.96 1017.80 1018.28 1017.84 1017.52 1017.76 1016.80 1016.64 1017.04 1016.48 1016.84 1017.64 1017.52 1015.80 1015.16 1015.36 1015.84 1016.08 1016.12 1016.12 1015.84 1016.08 1016.20 1016.32 1016.20 1016.16 1016.12 1016.12 1016.16 1016.12 1015.96 1015.76 1015.44 1014.88
1015.72 1015.52 1015.72 1015.28 1015.40 1015.64 1015.36 1015.32 1015.32 1015.28 1015.36 1015.32 1015.16 1015.00 1015.32 1015.20 1014.84 1014.64 1014.92 1015.20 1015.40 1015.48 1015.12 1015.20 1015.52 1015.72 1015.96 1016.16 1016.12 1015.84 1015.80 1015.72 1015.88 1016.04 1016.08 1016.00 1016.12 1016.48 1016.68 1016.88 1017.56 1018.16 1018.40 1018.24 1017.80 1017.60 1017.76 1017.24 1017.52 1017.24 1017.08 1017.16 1016.80 1016.56 1015.92 1015.88 1015.80 1016.08 1016.16 1016.16 1016.16 1016.12 1015.88 1015.68 1015.60 1015.64 1015.92 1016.00 1015.96 1016.08 1016.08 1015.96 1015.80 1015.48
1015.60 1015.44 1015.28 1015.00 1015.16 1015.40 1015.52 1015.52 1015.52 1015.44 1015.48 1015.60 1015.52 1014.88 1014.64 1014.72 1015.00 1014.88 1014.72 1014.84 1015.04 1015.16 1015.40 1015.44 1015.68 1015.92 1016.32 1016.72 1016.68 1016.44 1016.32 1016.32 1016.20 1016.32 1016.48 1016.52 1016.48 1016.56 1016.92 1017.36 1017.76 1018.40 1018.76 1018.24 1017.96 1017.92 1018.00 1017.88 1018.04 1018.00 1017.76 1017.80 1017.44 1017.08 1016.96 1016.28 1015.60 1016.20 1016.08 1016.04 1016.08 1016.04 1016.08 1015.80 1015.84 1015.84 1015.72 1015.60 1015.56 1015.84 1016.00 1016.04 1015.92 1015.84
1015.80 1015.40 1015.32 1015.12 1015.44 1015.60 1015.64 1015.56 1015.48 1015.32 1015.28 1015.36 1015.12 1014.88 1014.80 1014.80 1014.84 1014.76 1014.68 1014.84 1015.08 1015.36 1015.76 1015.92 1016.28 1016.56 1016.44 1016.64 1016.72 1016.84 1017.04 1016.84 1016.68 1016.56 1016.68 1016.80 1016.92 1017.12 1017.24 1017.40 1017.68 1018.16 1018.24 1018.12 1017.96 1018.04 1018.12 1018.24 1018.04 1018.40 1018.52 1018.20 1018.24 1017.56 1017.04 1016.76 1016.12 1015.68 1016.04 1015.96 1015.88 1015.68 1015.84 1015.96 1016.08 1016.08 1015.96 1015.96 1015.76 1015.84 1015.84 1015.96 1015.84 1015.88
1015.92 1015.76 1015.72 1015.92 1016.16 1016.04 1015.88 1015.64 1015.40 1015.20 1015.12 1014.92 1014.72 1014.80 1014.88 1015.00 1015.04 1014.72 1014.64 1014.92 1015.20 1015.44 1015.68 1015.88 1016.08 1016.48 1016.56 1016.60 1016.84 1016.96 1017.04 1017.24 1017.12 1017.08 1017.08 1017.20 1017.28 1017.48 1017.60 1017.76 1017.92 1017.96 1017.96 1017.96 1018.04 1018.08 1018.16 1018.32 1018.16 1018.24 1018.36 1018.40 1018.40 1018.16 1017.84 1016.76 1016.36 1016.16 1016.48 1016.24 1016.08 1015.72 1015.92 1016.12 1016.04 1016.16 1016.20 1016.04 1015.88 1015.76 1015.64 1015.60 1015.52 1015.64
1016.20 1016.32 1016.44 1016.32 1016.12 1015.92 1015.64 1015.48 1015.24 1014.92 1014.68 1014.56 1014.56 1014.64 1014.80 1014.84 1014.68 1014.48 1014.36 1014.60 1014.88 1015.20 1015.44 1015.60 1015.88 1016.24 1016.48 1016.72 1017.04 1016.92 1017.00 1017.24 1017.32 1017.32 1017.32 1017.32 1017.48 1017.64 1017.80 1018.00 1018.04 1018.00 1017.80 1017.84 1018.00 1018.16 1018.24 1018.32 1018.36 1018.28 1018.28 1018.16 1018.16 1017.80 1017.60 1017.52 1017.08 1016.76 1016.56 1017.04 1016.76 1016.12 1016.12 1016.16 1016.12 1016.24 1016.52 1016.36 1016.16 1016.04 1015.96 1015.88 1015.80 1015.68
1016.36 1016.28 1016.16 1015.96 1015.76 1015.48 1015.28 1015.08 1014.76 1014.56 1014.36 1014.40 1014.52 1014.56 1014.56 1014.56 1014.32 1014.20 1014.20 1014.28 1014.52 1014.84 1015.12 1015.52 1015.80 1016.20 1016.48 1016.76 1016.96 1017.08 1017.24 1017.44 1017.64 1017.56 1017.72 1017.72 1017.76 1017.84 1018.04 1018.20 1018.20 1017.92 1017.84 1017.92 1017.92 1018.20 1018.24 1018.32 1018.40 1018.48 1018.44 1018.16 1017.96 1017.88 1017.52 1017.44 1017.36 1016.84 1016.68 1016.84 1016.84 1016.44 1016.12 1016.28 1016.36 1016.28 1016.60 1016.72 1016.44 1016.20 1015.96 1015.84 1015.80 1015.88
1016.08 1015.92 1015.64 1015.40 1015.32 1015.24 1015.12 1015.12 1015.08 1014.84 1014.64 1014.44 1014.28 1014.20 1014.16 1014.08 1014.04 1014.00 1013.80 1013.92 1014.16 1014.36 1014.92 1015.36 1015.92 1016.36 1016.60 1016.84 1017.04 1017.44 1017.84 1018.04 1017.92 1017.76 1017.80 1017.56 1017.84 1017.92 1018.08 1018.12 1018.08 1018.00 1018.00 1017.80 1017.96 1018.32 1018.36 1018.36 1018.40 1018.44 1018.68 1018.44 1018.08 1017.80 1017.56 1017.56 1017.52 1017.12 1016.72 1016.60 1016.92 1017.40 1016.64 1016.40 1016.32 1016.28 1016.56 1016.76 1016.60 1016.16 1016.04 1015.92 1015.56 1015.56
1016.44 1015.96 1015.48 1015.20 1015.04 1014.88 1014.92 1014.92 1014.88 1014.76 1014.64 1014.48 1014.40 1014.20 1014.04 1013.96 1013.72 1013.88 1014.12 1014.40 1014.80 1014.92 1015.00 1015.60 1016.12 1016.56 1016.60 1016.96 1017.16 1017.28 1017.48 1017.68 1017.84 1017.76 1017.88 1018.08 1018.28 1018.12 1018.12 1018.28 1018.52 1018.36 1018.32 1018.24 1018.00 1018.12 1018.28 1018.28 1018.44 1018.40 1018.44 1018.44 1018.48 1018.04 1017.80 1017.52 1017.28 1016.96 1017.00 1016.88 1016.92 1016.76 1016.44 1016.52 1016.56 1016.48 1016.72 1016.92 1016.76 1016.48 1016.36 1016.08 1015.84 1015.60
1016.48 1015.84 1015.28 1014.68 1014.36 1014.76 1015.16 1015.28 1015.12 1014.96 1014.88 1014.80 1014.56 1014.44 1014.44 1014.52 1014.60 1014.64 1014.76 1015.24 1015.76 1015.80 1015.64 1016.08 1016.52 1016.68 1016.68 1016.92 1017.00 1017.40 1017.72 1018.00 1018.20 1018.28 1018.44 1018.48 1018.52 1018.48 1018.36 1018.52 1018.72 1018.88 1018.92 1018.68 1018.48 1018.28 1018.24 1018.28 1018.28 1018.32 1018.24 1018.16 1018.08 1018.12 1018.04 1017.76 1017.08 1016.88 1017.12 1017.12 1017.08 1017.04 1016.72 1016.60 1016.72 1016.88 1016.96 1016.96 1016.92 1016.56 1016.36 1016.04 1015.76 1015.80
1016.96 1015.84 1015.24 1014.96 1014.76 1014.80 1014.84 1015.12 1015.36 1015.40 1015.16 1015.00 1015.16 1015.16 1015.12 1015.08 1015.20 1015.40 1015.68 1016.04 1016.40 1016.56 1016.32 1016.04 1016.32 1016.64 1016.88 1017.40 1017.60 1017.72 1018.04 1018.28 1018.48 1018.60 1018.60 1018.76 1018.64 1018.72 1018.68 1018.72 1018.80 1018.88 1018.96 1018.88 1018.68 1018.56 1018.44 1018.44 1018.28 1018.00 1017.80 1017.72 1017.72 1017.88 1017.96 1017.88 1017.68 1017.32 1017.28 1017.24 1017.16 1017.24 1016.96 1016.84 1016.88 1017.00 1017.00 1017.00 1016.96 1016.84 1016.52 1016.12 1015.72 1015.68
1015.96 1015.40 1015.32 1015.20 1015.00 1015.04 1015.00 1015.28 1015.44 1015.48 1015.48 1015.44 1015.52 1015.60 1015.72 1015.76 1015.84 1015.96 1016.20 1016.32 1016.76 1016.92 1016.56 1016.52 1016.72 1017.04 1017.40 1017.84 1017.96 1018.08 1018.28 1018.48 1018.48 1018.60 1018.52 1018.36 1018.36 1018.56 1018.60 1018.76 1019.04 1019.20 1019.24 1019.04 1018.84 1018.64 1018.64 1018.48 1018.28 1018.00 1017.68 1017.56 1017.68 1017.76 1018.04 1018.00 1017.88 1017.72 1017.60 1017.28 1017.20 1017.44 1017.36 1017.20 1017.24 1017.16 1017.08 1016.92 1016.76 1017.08 1016.76 1016.28 1016.08 1015.80
1015.52 1015.32 1015.36 1015.52 1015.48 1015.28 1015.40 1015.60 1015.64 1015.68 1015.72 1015.68 1015.72 1015.96 1016.24 1016.44 1016.36 1016.36 1016.68 1016.84 1017.08 1017.36 1017.28 1017.20 1017.52 1017.68 1017.80 1017.92 1018.00 1018.16 1018.28 1018.28 1018.28 1018.28 1018.36 1018.44 1018.60 1018.76 1018.64 1018.88 1019.08 1019.16 1019.16 1019.04 1019.00 1018.72 1018.72 1018.64 1018.44 1018.36 1018.16 1017.60 1017.28 1017.20 1018.24 1018.16 1018.04 1017.96 1018.04 1017.84 1017.68 1017.68 1017.64 1017.60 1017.60 1017.36 1017.08 1016.92 1017.00 1017.04 1016.96 1016.92 1016.68 1016.16
1015.92 1015.76 1015.76 1015.88 1015.92 1015.88 1015.96 1015.84 1015.84 1015.88 1015.88 1015.88 1015.88 1016.04 1016.36 1016.72 1016.88 1016.88 1016.96 1016.92 1017.24 1017.56 1017.56 1017.52 1017.68 1017.72 1017.84 1018.00 1018.12 1018.20 1018.20 1018.00 1018.04 1018.16 1018.32 1018.52 1018.72 1018.76 1018.80 1018.88 1019.04 1019.16 1019.12 1018.96 1018.84 1018.72 1018.72 1018.76 1018.56 1018.48 1018.36 1018.00 1017.52 1017.12 1017.28 1018.20 1018.20 1018.04 1018.00 1018.24 1018.12 1017.88 1017.96 1017.88 1017.80 1017.52 1017.08 1017.16 1017.12 1016.84 1016.84 1017.08 1016.96 1016.44
1017.00 1016.80 1016.76 1016.88 1016.92 1016.80 1016.60 1016.56 1016.64 1016.64 1016.48 1016.40 1016.44 1016.52 1016.68 1016.88 1017.08 1017.28 1017.32 1017.52 1017.84 1017.88 1017.80 1017.84 1017.88 1017.88 1017.88 1017.84 1017.88 1017.96 1017.96 1017.96 1017.84 1017.76 1018.12 1018.48 1018.84 1019.04 1019.20 1019.28 1019.24 1019.24 1019.16 1018.92 1018.76 1018.68 1018.72 1018.80 1018.72 1018.72 1018.72 1018.52 1018.20 1017.76 1017.48 1017.36 1017.68 1018.20 1018.28 1018.20 1018.40 1018.36 1018.20 1018.16 1017.96 1017.80 1017.60 1017.24 1017.08 1016.84 1017.04 1017.12 1016.68 1016.32
1017.48 1017.48 1017.56 1017.68 1017.72 1017.56 1017.52 1017.52 1017.44 1017.44 1017.40 1017.36 1017.24 1017.20 1017.32 1017.44 1017.56 1017.64 1017.68 1017.80 1017.96 1018.04 1018.20 1018.48 1018.68 1018.72 1018.60 1018.64 1018.48 1018.44 1018.36 1018.36 1018.44 1018.48 1018.48 1018.60 1019.04 1019.28 1019.36 1019.44 1019.48 1019.24 1019.12 1018.96 1018.76 1018.64 1018.72 1018.76 1018.96 1019.12 1019.16 1019.08 1018.92 1018.76 1018.76 1018.76 1018.48 1017.96 1018.00 1018.12 1018.16 1018.28 1018.04 1018.36 1018.44 1018.12 1017.92 1017.60 1017.32 1017.28 1016.96 1016.44 1016.32 1016.40
1017.68 1017.68 1017.72 1017.88 1018.12 1018.20 1018.24 1018.24 1018.28 1018.24 1018.00 1017.92 1018.00 1018.12 1018.12 1018.08 1018.00 1018.08 1018.28 1018.48 1018.56 1018.64 1018.80 1019.12 1019.24 1019.24 1019.20 1019.04 1018.84 1018.72 1018.84 1018.96 1018.96 1018.92 1019.00 1018.96 1019.28 1019.44 1019.48 1019.68 1019.56 1019.28 1019.08 1019.00 1018.92 1018.80 1018.84 1018.96 1019.20 1019.52 1019.72 1019.64 1019.40 1019.08 1018.76 1018.60 1018.28 1017.84 1017.60 1018.08 1018.20 1018.36 1018.20 1018.32 1018.52 1018.56 1018.28 1017.88 1017.72 1017.48 1017.12 1016.80 1016.60 1016.24
1017.92 1018.00 1018.08 1018.00 1018.28 1018.52 1018.64 1018.72 1018.84 1019.08 1019.20 1019.20 1019.16 1019.12 1019.08 1019.12 1019.08 1019.16 1019.24 1019.28 1019.24 1019.28 1019.48 1019.68 1019.72 1019.72 1019.72 1019.76 1019.68 1019.40 1019.36 1019.44 1019.40 1019.44 1019.44 1019.40 1019.48 1019.60 1019.84 1019.92 1019.40 1019.04 1019.12 1019.08 1019.04 1019.08 1019.12 1019.32 1019.56 1019.80 1019.76 1019.48 1019.00 1018.56 1018.28 1018.00 1017.56 1016.96 1016.96 1017.84 1018.32 1018.28 1018.32 1018.36 1018.40 1018.48 1018.44 1018.16 1018.00 1017.72 1017.40 1017.16 1016.96 1016.72
1018.04 1018.28 1018.44 1018.52 1018.72 1018.84 1018.92 1018.96 1018.96 1019.04 1019.24 1019.40 1019.52 1019.64 1019.76 1019.76 1019.80 1019.80 1019.76 1019.88 1019.96 1020.04 1020.04 1020.04 1020.04 1020.00 1020.04 1020.00 1019.96 1019.88 1019.92 1020.04 1020.08 1020.12 1020.04 1019.84 1019.64 1019.56 1019.56 1019.44 1019.24 1019.20 1019.32 1019.24 1019.24 1019.32 1019.28 1019.28 1019.20 1019.12 1018.92 1018.76 1018.60 1018.64 1018.48 1018.24 1018.08 1017.80 1017.80 1017.60 1017.68 1018.20 1018.24 1018.16 1018.16 1018.16 1018.08 1018.08 1018.12 1017.92 1017.72 1017.44 1017.28 1016.96
1018.48 1018.60 1018.72 1018.80 1018.92 1019.08 1019.20 1019.36 1019.40 1019.48 1019.64 1019.80 1019.96 1020.00 1020.00 1020.08 1020.12 1020.16 1020.20 1020.36 1020.44 1020.52 1020.56 1020.56 1020.44 1020.36 1020.36 1020.44 1020.60 1020.64 1020.52 1020.60 1020.68 1020.60 1020.40 1020.20 1020.08 1020.00 1019.76 1019.44 1019.44 1019.36 1019.28 1019.20 1019.20 1019.28 1019.20 1019.12 1019.08 1019.04 1018.92 1018.76 1018.60 1018.76 1018.76 1018.56 1018.44 1018.40 1018.08 1017.80 1017.52 1017.64 1017.68 1017.76 1017.80 1017.96 1018.20 1018.32 1018.40 1018.36 1018.20 1018.12 1018.00 1017.72
1018.84 1018.88 1019.04 1019.12 1019.20 1019.32 1019.44 1019.60 1019.76 1019.88 1020.00 1020.08 1020.20 1020.28 1020.32 1020.48 1020.72 1020.84 1020.88 1020.92 1020.92 1021.00 1021.08 1021.20 1021.24 1021.24 1021.12 1021.04 1021.00 1020.96 1020.92 1021.00 1020.92 1020.76 1020.64 1020.56 1020.44 1020.32 1020.12 1019.84 1019.76 1019.64 1019.48 1019.28 1019.28 1019.20 1019.12 1019.12 1019.08 1019.08 1019.04 1018.84 1018.68 1018.60 1018.68 1018.88 1018.84 1018.48 1018.24 1018.08 1017.92 1017.84 1017.64 1017.36 1017.48 1018.24 1018.40 1018.40 1018.36 1018.36 1018.40 1018.28 1018.16 1018.20
1019.44 1019.40 1019.44 1019.52 1019.64 1019.76 1019.88 1019.96 1020.04 1020.16 1020.24 1020.32 1020.44 1020.64 1020.76 1020.80 1020.96 1021.16 1021.36 1021.44 1021.56 1021.68 1021.76 1021.80 1021.88 1021.88 1021.88 1021.72 1021.60 1021.48 1021.44 1021.40 1021.24 1021.08 1021.00 1020.72 1020.48 1020.32 1020.32 1020.20 1020.00 1019.84 1019.72 1019.68 1019.60 1019.44 1019.32 1019.32 1019.24 1019.08 1019.08 1018.92 1018.88 1018.88 1018.92 1018.96 1018.88 1018.72 1018.48 1018.20 1018.00 1017.92 1017.84 1017.88 1017.80 1017.56 1017.52 1017.68 1018.12 1018.20 1018.24 1018.20 1018.08 1017.96
Wind_Speed
7 6 6 6 6 6 6 6 7 5 4 6 5 4 5 4 5 6 6 4 5 5 3 6 5 4 1 3 4 2 3 5 6 3 1 1 2 4 2 2 3 3 3 4 6 6 7 7 8 8 9 10 10 10 10 11 12 13 13 12 11 8 7 2 6 7 9 9 8 9 9 8 7 7
6 6 7 6 6 6 6 7 7 5 4 6 6 5 5 3 5 5 6 5 6 6 4 5 4 6 3 5 4 2 2 8 7 1 2 3 4 4 3 3 2 2 2 3 5 6 6 7 8 8 9 9 10 10 10 11 12 12 13 13 12 9 7 3 5 7 8 9 9 8 9 9 8 7
6 7 7 6 7 7 7 7 7 6 5 6 6 6 5 4 5 5 5 7 4 5 6 5 5 3 1 4 4 4 3 5 2 5 2 1 3 5 7 7 7 4 2 2 4 5 6 7 7 7 8 8 9 10 10 11 11 12 12 13 13 11 6 3 4 6 8 9 8 6 8 9 8 8
6 6 7 7 7 6 6 7 7 6 6 6 6 6 5 5 6 5 6 6 7 7 8 7 6 4 2 2 5 3 6 8 8 3 5 2 4 9 7 9 11 6 4 2 3 4 5 6 7 7 7 9 10 11 11 11 11 11 12 12 12 10 6 1 4 5 7 9 9 6 8 9 9 8
7 7 7 8 7 7 7 7 7 7 7 7 6 6 6 6 6 7 6 7 8 6 5 5 6 5 4 4 0 5 5 5 2 5 4 4 5 5 5 3 9 8 5 3 3 3 4 5 6 6 8 9 10 11 11 11 11 11 11 12 11 10 7 3 5 7 8 10 10 9 8 8 9 9
7 7 7 8 8 8 8 8 8 8 8 7 7 7 7 6 6 5 6 7 7 7 5 6 5 5 3 6 2 4 5 5 5 6 5 5 5 5 4 6 6 7 7 3 1 2 3 4 5 6 7 8 9 11 11 11 10 11 11 10 11 10 9 7 2 5 7 10 10 10 9 8 8 8
8 8 8 8 8 7 8 8 8 8 8 7 7 8 6 6 6 6 5 5 6 6 5 5 6 5 3 4 5 5 5 4 4 5 6 6 6 4 5 6 1 8 9 4 2 2 2 3 4 5 7 8 9 10 10 11 12 11 11 11 11 10 9 8 3 2 6 8 9 9 9 9 8 8
8 8 8 8 8 8 8 7 7 7 7 7 6 7 6 6 6 6 6 5 6 6 6 5 6 5 5 5 5 5 3 5 4 6 5 6 5 5 7 7 3 9 8 7 6 3 4 4 6 6 7 8 10 11 12 12 12 13 13 12 11 10 10 8 5 4 4 5 7 9 10 10 9 9
8 8 9 8 8 8 8 8 8 7 8 7 7 7 6 6 6 6 6 6 6 6 7 7 6 5 6 6 5 4 5 5 5 4 5 5 5 5 7 8 5 10 10 9 9 8 8 8 8 7 6 8 11 12 13 13 13 13 13 13 12 11 9 9 6 4 5 4 5 9 9 10 10 10
9 9 9 9 9 8 9 8 7 7 7 7 7 7 7 6 6 6 6 7 7 7 7 7 7 6 7 5 5 4 4 5 5 4 4 4 3 4 6 6 6 6 2 2 4 8 7 10 11 7 7 6 10 14 14 14 13 13 13 13 13 12 11 8 7 6 5 4 2 6 8 9 10 10
10 10 9 9 9 9 9 9 9 8 8 7 8 8 6 7 7 8 7 7 8 8 9 8 8 7 7 6 6 4 3 4 4 5 4 4 4 3 4 6 6 5 5 1 5 3 7 6 7 10 10 9 9 13 15 14 13 13 13 12 12 12 12 11 9 7 6 4 2 5 8 9 9 10
10 10 10 10 10 10 9 9 9 8 8 7 6 7 7 7 8 8 8 5 7 8 8 9 6 8 7 5 6 5 4 5 4 4 4 5 4 4 4 4 5 4 5 7 1 6 8 7 11 10 11 15 14 9 11 14 13 12 12 12 12 12 12 12 12 10 8 5 3 5 8 9 8 8
10 10 10 10 11 9 9 8 5 6 5 3 4 4 8 8 6 6 8 8 5 6 7 8 2 4 7 10 7 5 5 5 4 4 5 5 5 4 5 4 3 2 5 6 5 4 4 1 5 7 3 6 8 11 11 9 12 12 11 12 12 12 12 12 13 13 12 9 6 5 5 5 5 6
11 11 11 10 10 8 8 7 7 8 9 8 9 8 2 2 5 7 10 5 3 1 4 7 5 4 5 7 9 9 6 4 3 5 4 5 5 5 5 5 1 3 5 6 5 4 3 3 2 3 4 5 8 7 8 8 8 9 11 12 12 12 13 13 13 13 13 13 10 7 7 6 5 3
11 11 11 11 10 10 10 10 12 11 11 10 10 10 9 7 6 6 8 6 9 5 6 7 7 6 6 7 14 11 5 5 4 4 4 5 4 5 5 5 1 2 5 4 5 4 2 3 2 4 5 7 7 8 8 8 9 10 11 11 12 12 13 13 13 14 14 13 12 10 7 6 4 3
11 11 11 11 10 10 11 11 9 11 11 9 7 8 8 10 11 11 11 8 6 7 7 7 8 7 5 4 10 11 5 3 3 3 5 5 4 5 5 5 5 3 5 5 4 4 5 2 2 6 4 7 8 8 7 8 9 10 10 11 11 12 13 13 14 14 14 13 12 11 9 7 6 4
10 10 10 10 10 9 8 9 7 7 8 10 10 9 9 11 13 12 14 14 10 7 8 8 7 6 3 4 11 10 4 2 5 5 5 5 5 5 5 5 4 3 4 5 4 4 6 3 1 6 2 6 7 7 8 8 9 9 10 11 11 12 13 13 14 14 14 14 13 13 11 9 7 6
8 7 9 9 10 10 10 8 7 7 8 7 8 9 10 10 11 12 14 17 16 11 9 7 7 5 4 8 12 5 1 3 5 5 6 6 6 6 4 1 1 2 4 4 5 4 4 3 4 2 5 7 8 8 6 7 8 9 10 10 11 12 12 13 14 14 14 14 14 13 12 10 9 8
10 11 8 8 9 11 10 8 6 8 8 7 8 9 10 10 10 9 8 8 9 10 11 12 11 7 7 12 9 4 3 4 3 4 5 6 6 5 4 4 3 2 3 4 5 4 4 2 4 2 2 8 8 8 7 7 8 8 9 9 10 11 12 12 13 14 14 14 14 13 12 11 9 10
8 7 5 5 7 10 14 7 9 9 9 9 9 10 10 10 10 10 3 2 4 4 6 8 9 7 2 6 6 6 4 3 3 3 4 4 3 4 4 3 4 1 4 5 4 4 4 2 4 2 1 2 4 5 8 9 9 8 7 7 8 10 11 11 12 12 12 13 13 13 11 8 8 6
8 6 5 7 10 15 13 7 9 11 8 10 10 10 10 9 9 9 4 5 2 1 5 8 9 8 8 8 8 7 7 3 4 3 4 5 3 3 4 4 2 4 3 5 5 4 4 4 4 5 0 3 1 3 5 8 10 10 9 7 5 6 7 9 11 11 12 12 12 13 14 10 5 6
8 12 11 10 13 13 9 6 11 9 9 8 9 9 11 11 11 10 8 4 4 6 8 9 9 8 8 8 7 6 3 1 4 3 5 3 2 4 3 2 3 5 5 6 8 4 4 3 3 5 5 2 4 3 3 1 8 9 9 10 8 5 3 6 8 9 10 11 13 13 14 15 15 5
10 9 9 16 13 10 9 4 4 8 9 9 9 10 9 11 12 10 9 5 5 5 5 4 4 4 5 6 5 5 4 2 1 2 2 3 3 4 3 3 2 5 6 7 10 4 2 3 2 4 5 6 1 5 4 1 1 1 1 5 6 9 7 5 6 8 8 9 9 12 12 16 13 7
8 10 11 9 10 11 9 10 5 5 9 10 11 10 11 11 13 9 6 1 6 8 8 5 6 5 5 4 4 6 5 4 5 3 3 4 3 1 1 2 2 5 6 7 10 5 4 3 4 5 5 4 5 5 6 3 1 2 2 3 4 6 9 8 5 8 8 7 7 8 10 11 13 7
8 7 6 13 6 2 7 9 9 7 9 10 10 11 9 11 3 3 4 9 9 8 4 3 3 3 2 2 3 3 3 3 5 6 7 6 5 4 2 1 3 5 5 6 11 5 4 5 5 6 5 5 6 6 4 4 3 1 1 3 3 3 5 1 4 1 9 9 10 7 6 6 11 10
9 8 8 8 10 15 12 13 12 12 11 9 7 13 14 8 7 6 5 6 6 5 3 4 4 4 3 2 3 3 3 3 6 6 7 7 7 7 7 6 5 4 4 5 8 6 5 4 6 6 6 6 7 7 7 6 0 2 3 2 3 1 3 3 3 4 4 6 4 6 2 2 6 7
7 7 8 7 14 16 14 14 14 14 13 9 10 13 13 13 11 9 6 5 6 5 4 4 4 3 4 4 5 4 4 5 5 6 6 8 8 8 9 8 7 6 4 4 5 5 4 3 4 5 6 6 7 7 6 5 3 3 2 3 5 2 2 4 3 4 5 4 4 2 6 8 7 5
5 5 5 7 12 12 12 13 13 14 13 10 12 11 13 12 10 10 7 7 5 7 6 7 7 5 4 4 5 5 6 6 6 7 7 7 8 7 7 7 6 5 4 4 4 4 4 3 3 3 5 5 6 6 6 6 6 5 4 3 6 3 2 3 4 3 4 5 5 5 5 4 2 2
4 5 8 11 10 10 12 13 12 11 11 13 13 12 10 10 9 9 8 8 8 7 8 8 7 6 6 6 5 6 7 6 5 6 6 7 7 7 6 5 4 3 2 3 4 4 4 3 4 4 4 4 6 6 6 6 6 6 4 5 4 4 4 3 4 3 4 5 5 5 5 4 3 5
10 10 10 10 9 9 9 8 7 8 7 4 5 5 5 5 9 8 8 7 8 7 7 9 8 8 8 8 6 6 6 6 5 5 4 5 5 4 4 4 3 3 3 2 3 5 4 4 4 4 5 5 5 6 5 6 5 6 4 4 4 6 2 3 4 2 3 5 6 5 4 4 2 4
5 5 5 5 7 8 10 11 8 6 4 4 3 3 4 4 3 3 6 7 9 9 9 9 9 8 8 7 7 7 6 5 4 3 3 3 4 3 2 0 2 2 2 2 3 4 4 3 4 4 4 5 5 5 5 5 6 5 4 3 3 5 5 4 3 3 4 5 6 5 3 5 3 1
7 7 6 9 6 3 3 3 2 2 2 3 1 1 1 2 1 7 13 11 6 6 7 9 9 8 8 8 7 7 6 6 5 4 4 4 4 3 1 1 3 3 3 4 3 2 1 3 4 4 4 4 5 5 4 5 6 4 3 3 3 4 4 3 4 4 6 6 5 5 4 4 4 3
8 7 6 5 2 2 3 3 4 3 4 5 7 7 7 7 7 8 7 9 7 7 10 9 7 6 6 7 7 7 7 6 6 5 5 5 4 3 3 3 3 4 4 4 3 3 3 4 4 5 5 4 4 4 4 4 3 2 3 3 4 4 4 3 4 5 5 5 5 5 5 4 3 2
6 6 4 3 4 4 3 4 4 5 4 5 6 8 9 9 9 8 8 7 6 5 6 8 8 7 7 6 5 6 7 6 6 5 4 4 3 4 4 4 3 4 4 5 5 5 5 5 5 5 4 4 3 2 3 3 4 4 4 4 4 4 4 4 4 5 5 5 5 6 5 4 2 2
5 4 2 2 3 3 3 4 4 5 5 6 7 8 10 10 9 9 8 7 6 5 7 8 8 8 7 6 5 5 6 6 5 4 3 2 3 4 4 4 5 6 6 5 6 6 6 6 6 6 4 4 5 6 3 4 3 3 5 4 3 4 5 5 6 6 6 5 4 5 6 4 4 3
3 3 2 3 4 3 4 4 5 5 6 6 7 8 9 10 9 8 8 6 6 5 6 7 7 6 6 6 5 5 5 4 4 2 3 4 5 5 5 5 6 6 5 5 6 6 5 6 6 5 6 4 4 4 7 2 4 4 5 4 4 5 5 6 6 6 6 4 4 5 5 5 5 5
4 4 5 5 6 6 4 4 4 5 6 6 7 8 9 9 8 8 8 7 7 5 4 5 6 6 6 6 5 5 5 4 3 2 3 4 5 5 6 6 6 6 6 6 6 6 4 5 4 4 5 6 4 4 4 6 3 8 3 4 5 5 6 6 6 6 5 5 6 5 5 5 6 5
7 6 6 6 5 5 5 6 5 5 5 6 7 9 9 8 8 8 8 7 7 6 6 6 5 5 5 4 5 5 4 3 1 3 2 3 4 5 6 6 6 7 7 7 6 5 3 4 4 4 5 5 4 4 3 4 1 3 3 3 4 5 5 6 7 6 6 5 6 6 6 7 6 6
7 7 7 6 6 6 6 5 5 5 6 6 6 7 7 7 7 6 7 7 7 6 6 6 6 5 4 3 3 3 3 2 2 2 2 2 2 3 4 4 6 7 7 6 5 4 2 3 3 4 5 5 5 5 6 6 6 5 4 4 1 3 5 6 6 7 7 7 6 6 7 6 7 7
7 7 7 7 7 7 7 7 7 7 7 7 7 6 6 5 5 6 6 6 6 7 7 6 5 4 4 3 3 3 4 3 3 3 2 2 2 3 3 5 7 6 5 4 4 3 3 3 4 5 5 5 6 6 7 7 7 8 5 5 3 2 5 5 5 7 7 7 8 7 7 6 6 4
7 7 7 6 6 7 7 7 7 8 8 8 8 8 7 7 7 7 7 7 7 6 6 6 6 6 5 5 5 5 4 3 3 3 3 2 1 2 2 4 5 3 4 4 3 2 3 4 5 1 7 6 6 6 7 6 6 4 2 6 3 5 8 3 2 4 5 7 7 8 8 8 7 7
6 7 6 6 6 6 6 6 6 7 7 7 7 7 7 8 8 9 9 9 7 6 6 5 5 4 4 5 5 5 4 4 4 4 4 4 4 4 3 4 4 3 3 2 2 3 4 3 3 4 4 5 5 5 5 5 5 5 5 6 3 9 9 10 9 8 4 4 6 7 7 7 7 8
6 6 6 6 6 6 6 6 6 6 6 6 7 6 6 6 6 7 6 6 6 6 5 5 5 5 5 5 4 4 3 3 3 4 4 4 4 4 4 3 2 3 2 2 1 2 3 3 3 4 4 4 3 4 5 5 6 6 7 5 5 4 4 11 14 10 6 1 4 4 4 5 6 7
6 6 6 6 6 6 6 6 6 6 6 6 6 6 6 6 7 7 6 6 6 6 6 6 6 6 5 5 4 3 3 3 4 3 4 4 3 3 4 3 2 2 3 2 2 3 3 4 4 4 5 4 4 5 5 5 6 6 7 6 7 6 7 7 1 7 3 6 6 3 3 4 3 4
5 5 5 6 6 6 6 5 6 6 5 5 5 6 5 6 6 6 6 6 6 5 5 4 4 3 3 3 3 3 3 3 3 3 3 3 3 2 2 2 2 2 2 2 3 3 3 3 4 4 4 5 5 5 5 6 6 6 7 7 7 6 6 6 7 5 5 5 8 10 9 10 9 8
Wind_Direction
276 267 257 265 277 279 281 281 281 286 292 286 283 275 283 287 285 287 296 292 298 306 314 306 47 342 293 287 292 249 307 38 318 345 324 89 86 84 347 27 30 14 12 5 356 350 349 346 349 354 358 357 359 359 359 358 356 356 355 358 2 357 351 208 188 189 196 194 185 175 179 186 176 187
264 268 274 279 276 276 271 262 263 269 252 264 258 258 260 253 268 289 290 296 297 299 290 291 130 247 264 246 232 243 299 91 291 296 299 328 51 120 235 148 114 49 31 15 2 352 353 351 351 355 356 357 357 1 4 3 2 1 3 6 10 6 3 329 183 184 194 196 195 176 180 187 184 191
258 267 271 267 268 273 278 283 280 272 254 251 263 274 275 265 268 275 281 283 290 309 295 288 310 282 218 303 313 312 307 116 322 290 298 260 118 225 193 183 131 111 66 38 5 359 2 355 350 351 1 352 355 4 8 8 4 2 6 12 14 13 8 17 172 182 187 193 197 180 182 189 194 194
252 251 255 259 264 272 275 273 272 267 255 264 267 259 258 252 255 261 267 274 275 277 292 316 298 265 296 245 280 328 298 128 186 299 283 344 233 246 175 184 134 124 101 40 24 8 5 1 354 358 359 358 3 5 7 8 6 5 6 12 16 13 9 62 157 161 180 184 191 187 189 192 198 200
261 256 258 264 267 269 271 273 270 269 262 247 250 257 259 260 253 252 254 264 276 283 295 305 293 318 319 288 239 291 304 297 4 274 244 253 285 312 322 135 129 126 102 65 34 27 14 6 2 5 7 9 8 7 7 4 3 5 6 10 15 16 9 27 139 163 178 184 187 195 204 201 203 205
254 253 248 254 257 252 255 264 267 262 264 261 255 247 248 256 263 262 263 267 279 280 275 273 294 297 281 283 297 315 302 315 307 299 310 289 268 301 328 313 124 131 102 101 55 63 29 20 21 20 24 19 13 14 12 6 2 3 8 9 15 16 15 23 71 168 177 189 184 193 201 201 208 212
243 244 247 248 249 253 252 248 254 264 265 268 272 273 274 274 270 267 253 263 270 279 280 276 266 253 258 284 295 297 297 306 274 292 289 308 315 336 311 301 82 132 130 166 226 105 54 62 43 48 47 36 25 22 16 15 10 7 8 13 16 14 13 20 14 248 197 193 187 189 200 201 198 212
244 245 248 255 258 262 262 261 272 275 271 266 257 259 261 262 270 268 258 243 265 275 282 277 280 296 293 280 279 282 291 283 316 301 315 296 301 323 312 301 315 141 150 186 217 171 129 99 77 73 64 51 43 34 26 18 14 10 9 8 14 19 14 20 15 320 271 215 187 191 203 205 203 202
251 254 256 254 251 249 251 254 254 259 260 259 262 263 255 255 258 260 258 251 247 256 263 268 262 263 262 263 268 274 289 301 271 231 264 298 309 316 311 312 350 134 179 179 204 177 147 123 94 73 74 69 55 47 35 24 19 16 11 8 8 15 17 14 10 340 292 267 197 203 200 201 207 202
244 248 247 248 248 249 250 255 255 263 275 272 263 262 267 269 268 260 252 251 253 255 259 265 264 252 251 250 260 269 273 289 300 290 277 271 267 290 309 325 322 325 348 321 187 151 145 116 95 81 81 90 70 60 46 31 24 18 13 9 7 6 9 10 4 349 311 289 225 210 210 207 205 208
246 244 243 242 242 245 249 252 254 249 249 257 260 257 262 258 257 255 256 253 248 253 257 258 258 259 253 252 253 229 225 272 271 287 289 297 288 284 311 314 324 333 342 214 125 348 19 74 102 102 94 95 91 74 57 41 27 19 15 10 8 6 3 3 3 355 333 303 237 203 216 217 205 207
246 244 244 244 242 240 239 241 249 251 254 262 277 274 261 255 255 261 262 271 275 266 261 263 292 304 283 261 269 265 233 249 250 247 282 293 305 302 297 306 318 350 318 315 8 184 150 103 102 118 104 89 68 50 81 60 33 19 16 12 12 8 3 1 360 1 359 337 270 218 208 213 207 207
244 246 249 248 247 244 242 252 268 290 326 302 267 284 276 282 292 290 286 272 282 310 330 310 298 269 310 299 280 274 254 263 279 308 303 301 292 298 302 303 306 321 312 324 342 346 343 70 162 170 157 75 78 69 42 55 50 23 16 17 15 10 7 5 4 6 11 14 7 340 312 274 227 207
250 247 246 248 253 262 256 233 208 222 232 241 259 266 295 328 276 297 274 293 315 137 259 264 280 287 256 272 265 239 241 256 241 258 262 289 305 303 302 297 338 6 328 336 342 332 348 355 31 27 56 74 61 50 47 35 24 25 22 23 20 16 11 9 10 13 17 23 23 13 356 351 343 307
258 258 254 252 240 222 213 215 213 215 220 224 232 244 247 244 239 240 261 235 243 256 249 255 258 261 280 294 294 292 287 270 295 307 301 294 303 303 309 309 8 41 346 325 333 319 2 354 348 48 76 62 49 58 51 22 34 32 31 28 26 23 19 16 16 18 22 25 28 29 23 15 26 13
247 249 253 254 250 241 236 243 212 214 206 211 226 241 254 254 249 230 236 251 243 237 250 255 254 251 238 273 288 274 285 311 296 292 298 286 288 292 296 308 327 31 343 332 316 357 284 35 346 62 80 83 70 60 44 41 34 37 35 33 31 31 26 23 21 21 23 24 25 27 28 29 26 35
256 252 258 264 267 262 244 238 218 201 203 197 210 233 247 254 255 241 228 235 241 244 250 257 264 257 291 274 258 277 323 340 288 296 286 299 298 305 306 330 337 42 344 315 323 334 331 324 69 95 65 80 88 92 62 43 42 39 39 35 36 34 33 30 27 24 24 25 24 24 25 30 40 45
270 288 269 260 258 259 261 261 241 218 235 234 227 229 238 247 247 242 218 219 228 241 256 262 252 238 225 241 258 262 239 268 281 293 294 304 306 305 325 311 62 47 353 349 326 316 257 338 5 99 124 111 102 88 72 61 57 48 42 39 36 36 35 34 31 28 26 26 24 23 22 27 43 48
243 239 245 258 266 269 250 244 233 245 246 246 249 251 253 248 249 249 242 230 217 214 222 231 241 239 224 243 248 235 225 259 286 299 303 305 307 301 292 100 29 124 42 0 315 315 324 10 315 86 172 145 120 110 114 84 76 65 53 46 40 38 37 36 35 32 29 27 25 23 19 15 29 68
254 253 260 278 276 270 262 224 220 230 249 261 262 261 254 254 254 252 229 25 341 274 229 235 242 250 289 31 28 19 353 308 279 275 264 267 258 275 286 255 152 142 81 26 350 325 317 1 334 347 211 234 145 136 120 128 106 95 81 61 51 46 44 39 36 37 35 31 25 19 20 13 358 21
255 247 227 243 247 242 245 240 211 207 226 256 264 265 263 263 261 254 205 140 109 115 90 86 84 77 75 68 51 47 36 9 332 288 278 264 266 278 278 284 197 133 79 40 4 314 296 359 338 317 5 285 199 170 145 139 141 136 123 109 86 60 60 56 44 37 33 30 28 22 10 3 341 241
248 241 225 235 254 258 260 236 204 191 200 241 252 257 260 258 256 250 245 200 143 90 67 68 75 89 107 112 105 87 86 345 280 264 265 291 288 271 265 260 304 105 73 35 347 303 0 352 355 330 323 185 232 182 132 78 138 140 132 127 132 134 77 84 77 55 43 32 24 19 15 6 338 240
284 266 219 237 250 257 282 328 201 194 209 247 253 255 261 257 249 251 244 222 219 183 166 157 140 112 137 151 139 109 135 119 246 241 294 272 272 280 301 331 316 233 93 28 345 324 9 335 37 339 319 312 93 134 141 87 7 283 271 156 144 144 173 162 125 102 73 50 39 23 20 10 350 335
284 295 295 248 234 254 236 263 274 242 232 249 259 260 260 257 248 250 246 40 299 251 223 190 186 182 176 169 166 164 145 115 77 53 13 5 344 304 281 281 345 33 45 29 349 339 328 14 340 356 327 316 312 313 309 294 310 345 332 335 321 165 183 169 157 133 111 106 85 59 21 25 11 360
265 264 257 286 103 264 351 334 311 271 239 243 258 259 247 254 321 111 222 168 199 243 225 208 180 181 178 226 231 151 166 132 94 72 48 56 46 38 355 338 80 74 50 19 334 348 340 356 352 341 328 320 301 305 331 312 243 244 329 320 320 16 332 320 343 142 144 139 118 105 72 49 36 20
285 286 296 286 20 8 358 342 328 310 293 269 257 256 255 247 162 210 202 191 186 192 176 143 165 148 153 259 356 55 110 112 97 89 84 67 67 61 57 45 57 89 56 40 356 16 347 13 3 336 332 325 316 314 305 295 283 106 316 317 299 360 324 348 342 359 345 347 12 13 45 123 112 59
291 297 303 309 5 347 337 320 313 299 288 266 246 253 260 249 224 216 207 179 186 170 156 147 116 84 109 153 131 106 94 87 85 93 91 93 87 80 75 73 81 89 87 58 45 31 16 7 13 354 333 327 311 307 297 302 330 17 316 332 324 302 23 346 337 359 352 342 359 268 196 205 145 112
308 310 325 341 333 315 309 298 295 293 279 261 255 247 252 256 230 226 205 194 178 174 160 162 154 146 137 98 106 118 105 99 96 95 92 86 84 87 91 95 94 94 93 72 58 42 33 356 351 7 320 312 307 308 313 314 306 322 326 351 309 313 12 341 329 8 348 345 338 351 357 354 42 160
316 335 307 292 292 294 295 293 286 287 272 249 247 251 262 247 224 219 221 204 190 173 179 165 151 132 113 109 97 94 97 89 89 98 94 93 94 91 88 87 99 101 76 74 70 53 28 8 346 342 314 297 290 296 302 302 312 303 343 334 295 341 340 345 333 4 1 340 334 342 352 344 11 351
284 280 278 276 276 287 282 291 318 322 324 305 261 257 251 245 233 219 212 204 186 171 158 158 139 120 110 104 107 100 103 112 112 105 117 124 113 124 131 133 113 110 86 81 71 45 20 15 357 338 310 296 289 292 295 303 301 308 311 302 333 289 210 350 334 347 4 346 331 329 339 329 358 344
281 276 278 289 274 262 277 278 286 307 313 280 262 252 227 214 237 304 234 186 182 153 141 123 108 104 103 103 106 106 110 116 124 142 162 127 106 106 76 65 97 104 86 78 78 52 5 13 348 340 310 304 299 291 311 302 287 289 295 327 337 312 344 323 316 335 11 347 321 311 320 317 321 43
306 289 262 247 245 286 308 314 257 317 339 359 309 312 296 20 62 102 85 71 55 62 76 94 104 115 125 124 127 130 127 117 110 86 68 66 63 41 32 48 49 9 10 356 356 76 4 6 342 322 299 291 288 302 300 284 280 289 311 317 311 311 310 326 334 352 12 335 316 317 320 309 314 351
295 267 256 276 257 59 7 347 349 15 44 38 38 45 63 70 69 70 78 92 85 97 108 108 110 119 121 117 115 113 106 96 92 81 74 57 55 58 33 27 23 3 346 343 344 346 355 344 324 304 287 274 279 285 288 291 297 327 314 323 322 316 319 348 340 355 346 320 317 314 319 310 292 350
294 288 302 328 351 355 14 27 23 22 31 63 68 62 63 73 68 66 64 63 77 79 92 100 104 99 96 87 94 99 98 95 83 83 81 69 52 31 21 12 5 354 341 336 338 342 344 332 318 299 265 244 213 228 295 304 319 323 336 316 322 318 338 334 348 341 332 326 319 320 325 314 330 339
241 276 336 342 3 5 27 42 49 51 56 62 76 79 79 77 74 72 70 76 65 44 71 79 85 90 93 99 98 96 100 112 115 99 89 77 14 12 355 350 350 339 334 328 338 342 339 331 326 318 295 218 213 172 23 343 321 349 327 319 340 337 330 344 340 331 324 305 329 328 311 312 327 356
350 350 10 10 4 7 37 54 64 66 70 82 93 94 86 80 72 71 80 71 70 65 68 73 82 93 103 113 115 119 119 115 93 74 54 17 12 1 344 346 340 335 330 326 336 334 337 332 330 328 323 313 287 230 155 294 346 356 335 331 350 333 337 336 335 316 302 321 333 308 306 324 320 318
36 17 25 22 19 16 27 44 61 80 88 92 92 97 98 92 71 68 59 58 74 71 84 116 119 112 101 101 108 118 131 134 107 63 16 7 353 340 332 338 336 335 328 332 328 325 332 331 328 327 327 313 307 311 99 153 14 355 0 349 330 342 341 329 317 302 313 325 302 301 313 320 298 303
30 24 28 29 21 21 28 37 46 62 78 91 101 104 104 98 86 80 85 78 67 54 56 56 76 108 125 138 137 126 126 121 41 17 35 354 336 342 340 335 335 330 324 320 321 323 337 321 332 352 332 325 317 318 331 20 89 138 233 354 341 340 327 328 321 325 325 314 312 319 323 291 299 310
42 42 40 39 31 24 34 45 61 68 64 66 67 75 78 79 75 73 79 85 92 96 89 73 52 44 75 72 77 109 106 90 80 76 36 51 40 353 339 338 323 320 317 315 322 320 334 327 9 355 343 333 327 343 334 321 308 325 156 132 314 311 331 341 323 323 323 320 326 327 292 292 285 222
49 48 49 50 50 52 52 46 35 28 38 46 51 39 38 49 65 70 69 67 68 69 77 82 86 76 50 41 56 72 71 57 42 41 33 16 43 345 348 346 319 312 308 321 322 339 340 4 9 7 350 322 310 305 302 286 286 265 233 123 115 150 345 329 324 326 316 323 324 308 315 320 314 330
50 54 55 58 59 50 48 55 57 52 45 38 45 43 41 40 48 52 50 49 54 62 64 57 48 49 47 40 26 33 50 41 35 24 23 353 12 332 344 294 299 320 328 323 328 328 357 15 11 251 250 276 290 279 267 266 274 300 332 140 212 202 154 167 335 316 308 319 315 317 315 323 317 310
58 62 59 55 54 54 56 54 54 54 53 50 47 47 44 44 49 51 55 52 55 56 63 64 68 62 59 45 33 30 34 27 17 4 349 336 330 327 290 295 320 339 322 315 340 343 344 319 312 312 316 307 295 298 306 316 312 316 319 309 201 185 193 197 197 210 274 322 324 323 324 322 329 306
62 63 61 60 58 57 57 55 53 54 57 53 51 51 57 56 50 51 56 55 51 54 53 50 42 42 42 42 33 21 18 38 12 346 335 332 335 322 319 324 345 326 318 315 333 320 307 312 313 306 307 298 305 312 300 311 310 303 293 288 300 306 266 199 201 190 175 18 336 348 330 328 322 313
54 60 59 53 57 61 59 59 60 60 61 61 61 53 50 55 55 49 47 46 45 44 42 37 32 26 22 19 13 11 18 11 347 335 337 334 323 333 332 335 331 323 321 331 340 325 337 329 329 315 306 307 313 297 300 300 294 301 304 304 302 293 299 324 241 137 142 186 196 179 257 247 244 244
50 46 52 60 59 59 56 62 66 64 63 67 67 66 67 66 64 58 50 46 46 47 45 44 45 37 23 12 5 3 1 349 337 350 337 323 328 337 330 321 318 334 325 353 318 318 327 332 312 311 303 298 300 298 293 291 291 295 289 289 296 306 318 315 313 291 253 195 196 203 212 216 211 234